Location: Kalberh�ni
(46.4610°N, 7.2453°E)
Time: 06:26:04
(UTC+00:00)

Cosmos 1816 Rocket - Pass Details

Date: 20 June 2021
Orbit: 952 x 998 km, 82.9° (Epoch: 28 July)

Event Time Altitude Azimuth Distance (km) Brightness Sun altitude
Exits shadow 22:47:52 34° 167° (SSE) 1,528 5.0 -19.4°
Maximum altitude 22:50:38 69° 94° (E) 1,021 4.5 -19.5°
Drops below altitude 10° 22:56:43 10° 13° (NNE) 2,690 7.8 -19.6°
Sets 22:59:14 0° 11° (NNE) 3,642 8.8 -19.7°
